Total_Precipitation_Accumulation
0.00 0.00 0.00 0.00 0.00 0.00 0.00 0.00 0.01 0.03 0.07 0.12 0.14 0.12 0.12 0.11 0.12 0.14 0.12 0.12 0.10 0.08 0.10 0.16 0.27 0.44 0.62 0.80 1.03 1.13 0.93 0.79 0.65 0.54 0.54 0.63 0.71 0.75 0.77 0.80 0.86 0.81 0.68
0.01 0.01 0.01 0.01 0.01 0.00 0.00 0.00 0.00 0.00 0.00 0.01 0.02 0.05 0.10 0.12 0.15 0.16 0.14 0.13 0.12 0.09 0.09 0.12 0.18 0.31 0.51 0.73 0.98 1.29 1.21 1.07 0.91 0.72 0.56 0.55 0.62 0.68 0.71 0.77 0.82 0.89 0.84
0.01 0.01 0.01 0.01 0.01 0.00 0.00 0.00 0.00 0.00 0.00 0.00 0.00 0.00 0.01 0.03 0.07 0.12 0.12 0.14 0.16 0.13 0.11 0.12 0.14 0.19 0.33 0.57 0.85 1.17 1.47 1.37 1.20 1.03 0.79 0.58 0.56 0.62 0.67 0.76 0.82 0.89 0.93
0.01 0.01 0.01 0.01 0.01 0.00 0.01 0.01 0.01 0.01 0.01 0.00 0.00 0.00 0.00 0.00 0.00 0.02 0.04 0.09 0.14 0.17 0.15 0.15 0.16 0.17 0.22 0.34 0.59 0.91 1.41 1.54 1.52 1.38 1.22 0.90 0.66 0.61 0.66 0.72 0.83 0.91 0.96
0.01 0.01 0.01 0.01 0.01 0.01 0.01 0.01 0.01 0.00 0.00 0.00 0.00 0.00 0.00 0.00 0.00 0.00 0.00 0.02 0.05 0.11 0.15 0.16 0.16 0.16 0.16 0.20 0.34 0.60 1.01 1.44 1.61 1.60 1.52 1.33 0.99 0.72 0.68 0.73 0.81 0.93 1.03
0.01 0.01 0.01 0.01 0.01 0.01 0.01 0.01 0.01 0.00 0.00 0.01 0.00 0.00 0.00 0.00 0.00 0.00 0.00 0.00 0.01 0.05 0.09 0.12 0.14 0.15 0.15 0.15 0.21 0.35 0.65 1.09 1.53 1.65 1.60 1.59 1.43 1.03 0.80 0.78 0.82 0.95 1.06
0.00 0.01 0.01 0.01 0.01 0.01 0.01 0.01 0.00 0.01 0.01 0.00 0.01 0.00 0.00 0.00 0.00 0.00 0.00 0.00 0.00 0.02 0.06 0.10 0.13 0.14 0.14 0.15 0.15 0.18 0.37 0.72 1.23 1.76 1.79 1.71 1.77 1.56 1.14 0.96 0.94 1.01 1.14
0.00 0.01 0.01 0.01 0.02 0.01 0.01 0.00 0.01 0.02 0.02 0.01 0.03 0.06 0.04 0.01 0.00 0.00 0.00 0.00 0.00 0.00 0.02 0.06 0.12 0.13 0.12 0.14 0.11 0.12 0.17 0.34 0.73 1.37 2.02 2.08 2.04 2.09 1.74 1.34 1.19 1.19 1.31
0.01 0.01 0.01 0.02 0.02 0.02 0.01 0.01 0.02 0.04 0.04 0.02 0.03 0.14 0.24 0.16 0.04 0.00 0.00 0.00 0.00 0.00 0.00 0.02 0.06 0.11 0.14 0.15 0.14 0.12 0.14 0.20 0.36 0.79 1.58 2.31 2.43 2.51 2.43 1.88 1.56 1.46 1.50
0.01 0.01 0.01 0.02 0.02 0.01 0.02 0.02 0.03 0.04 0.08 0.08 0.05 0.06 0.14 0.20 0.24 0.12 0.02 0.03 0.04 0.03 0.02 0.02 0.03 0.07 0.13 0.18 0.21 0.21 0.22 0.23 0.30 0.51 1.02 1.87 2.61 2.86 2.98 2.65 2.07 1.82 1.73
0.01 0.01 0.02 0.02 0.02 0.01 0.02 0.03 0.04 0.05 0.08 0.11 0.11 0.10 0.08 0.07 0.13 0.23 0.11 0.04 0.07 0.08 0.07 0.05 0.06 0.09 0.12 0.20 0.23 0.23 0.30 0.35 0.46 0.52 0.74 1.21 2.15 2.90 3.31 3.33 2.77 2.15 1.90
0.01 0.01 0.02 0.02 0.02 0.02 0.03 0.04 0.05 0.06 0.06 0.08 0.11 0.13 0.16 0.19 0.15 0.20 0.19 0.06 0.03 0.04 0.06 0.09 0.09 0.12 0.15 0.20 0.26 0.35 0.35 0.43 0.60 0.58 0.53 0.70 1.29 2.16 2.96 3.42 3.26 2.61 2.11
0.01 0.02 0.02 0.02 0.02 0.03 0.03 0.04 0.06 0.06 0.06 0.08 0.11 0.13 0.15 0.17 0.17 0.21 0.26 0.16 0.07 0.02 0.02 0.04 0.08 0.10 0.15 0.18 0.22 0.28 0.27 0.34 0.43 0.48 0.41 0.41 0.68 1.24 2.08 2.99 3.42 3.07 2.47
0.02 0.02 0.02 0.02 0.02 0.03 0.04 0.05 0.06 0.06 0.07 0.10 0.10 0.13 0.18 0.15 0.18 0.25 0.32 0.38 0.31 0.10 0.03 0.03 0.04 0.07 0.12 0.16 0.16 0.19 0.16 0.20 0.27 0.35 0.38 0.34 0.40 0.66 1.22 2.14 3.32 3.74 3.15
0.02 0.02 0.02 0.02 0.02 0.03 0.04 0.07 0.08 0.08 0.10 0.12 0.14 0.17 0.22 0.19 0.21 0.24 0.30 0.45 0.64 0.46 0.13 0.03 0.04 0.08 0.13 0.15 0.17 0.16 0.13 0.14 0.19 0.26 0.34 0.36 0.36 0.44 0.67 1.19 2.10 3.39 4.06
0.02 0.02 0.02 0.02 0.02 0.04 0.05 0.08 0.09 0.10 0.14 0.15 0.19 0.22 0.24 0.24 0.25 0.26 0.31 0.36 0.51 0.63 0.39 0.07 0.05 0.08 0.19 0.20 0.17 0.16 0.15 0.17 0.17 0.19 0.23 0.29 0.35 0.42 0.54 0.77 1.24 2.06 3.28
0.02 0.02 0.02 0.03 0.05 0.08 0.09 0.12 0.12 0.13 0.17 0.19 0.22 0.25 0.26 0.28 0.32 0.29 0.32 0.36 0.38 0.45 0.44 0.13 0.05 0.06 0.16 0.22 0.21 0.16 0.15 0.17 0.15 0.16 0.20 0.27 0.36 0.45 0.56 0.70 0.93 1.36 2.09
0.02 0.02 0.03 0.05 0.09 0.13 0.15 0.17 0.17 0.16 0.20 0.22 0.23 0.27 0.29 0.28 0.30 0.28 0.31 0.33 0.30 0.29 0.35 0.23 0.07 0.06 0.11 0.19 0.27 0.28 0.22 0.20 0.18 0.19 0.22 0.31 0.41 0.46 0.54 0.67 0.85 1.12 1.50
0.03 0.03 0.03 0.07 0.15 0.23 0.22 0.18 0.21 0.22 0.22 0.23 0.26 0.29 0.30 0.30 0.29 0.26 0.31 0.31 0.25 0.23 0.28 0.31 0.16 0.09 0.12 0.15 0.27 0.37 0.32 0.27 0.24 0.23 0.24 0.27 0.34 0.44 0.49 0.58 0.73 0.93 1.13
0.03 0.03 0.03 0.05 0.16 0.34 0.37 0.29 0.34 0.32 0.26 0.23 0.19 0.19 0.26 0.36 0.35 0.34 0.38 0.32 0.29 0.32 0.37 0.43 0.32 0.20 0.20 0.20 0.31 0.43 0.46 0.42 0.35 0.28 0.27 0.26 0.31 0.44 0.47 0.45 0.46 0.56 0.76
0.02 0.03 0.03 0.03 0.09 0.43 0.80 0.75 0.68 0.51 0.30 0.19 0.12 0.12 0.20 0.35 0.40 0.55 0.66 0.58 0.57 0.66 0.65 0.67 0.59 0.47 0.40 0.41 0.45 0.46 0.60 0.59 0.50 0.41 0.34 0.28 0.28 0.28 0.30 0.31 0.33 0.40 0.52
0.03 0.03 0.03 0.03 0.05 0.31 0.84 0.93 0.69 0.38 0.23 0.17 0.13 0.10 0.13 0.26 0.30 0.39 0.54 0.66 0.76 0.91 0.97 0.97 0.91 0.80 0.58 0.50 0.50 0.60 0.68 0.81 0.77 0.55 0.50 0.38 0.34 0.37 0.32 0.29 0.33 0.38 0.48
0.03 0.03 0.03 0.03 0.03 0.18 0.68 0.79 0.49 0.27 0.18 0.14 0.11 0.10 0.11 0.20 0.27 0.34 0.40 0.45 0.51 0.67 0.91 1.03 1.07 0.79 0.61 0.54 0.66 0.81 0.80 0.89 0.85 0.76 0.85 0.71 0.46 0.44 0.40 0.44 0.51 0.47 0.50
0.04 0.03 0.03 0.03 0.02 0.09 0.53 0.66 0.39 0.22 0.14 0.11 0.08 0.09 0.09 0.14 0.26 0.48 0.50 0.45 0.40 0.47 0.68 0.90 1.11 0.96 0.78 0.78 1.01 1.27 1.33 1.23 0.90 0.78 0.95 1.03 0.66 0.54 0.55 0.59 0.60 0.53 0.51
0.04 0.04 0.03 0.02 0.02 0.04 0.32 0.56 0.38 0.20 0.13 0.09 0.05 0.06 0.09 0.13 0.28 0.54 0.58 0.46 0.33 0.32 0.41 0.68 0.97 1.11 1.09 1.14 1.32 1.64 1.78 1.61 1.22 0.82 0.87 1.09 0.95 0.79 0.81 0.86 0.78 0.65 0.54
0.04 0.04 0.03 0.02 0.02 0.02 0.16 0.40 0.42 0.25 0.14 0.10 0.08 0.07 0.12 0.25 0.39 0.55 0.54 0.51 0.59 0.45 0.39 0.40 0.47 0.58 0.70 0.79 1.02 1.36 1.60 1.62 1.34 1.19 0.99 1.06 1.19 1.17 1.28 1.14 0.99 0.75 0.56